Wind_Speed
9 9 9 9 9 8 8 9 9 9 8 8 8 7 7 6 6 6 5 6 6 5 5 5 4 4 4 4 4 3 3 2 2 2 2 2 2 3 2 3 3 3 2
9 9 8 9 9 9 9 9 8 8 8 8 7 7 7 6 6 6 6 6 6 6 6 4 5 5 5 4 4 3 2 2 2 1 1 1 2 2 2 2 1 2 2
9 8 9 9 9 9 9 9 9 9 9 8 8 7 7 6 6 7 7 7 7 6 5 4 4 4 4 4 3 3 2 1 1 1 1 1 1 1 1 1 1 1 2
8 9 9 9 9 10 10 9 9 9 9 9 8 8 7 7 7 7 8 7 7 6 5 5 4 4 4 3 2 2 1 1 1 1 1 1 1 1 1 1 1 1 1
8 9 9 9 10 11 10 9 9 9 10 10 9 9 8 7 8 7 7 7 7 6 6 5 4 4 3 2 1 1 1 1 1 1 1 0 0 1 1 1 2 2 1
8 9 9 9 10 10 10 9 9 9 9 9 9 9 8 8 8 7 7 6 6 6 5 4 4 3 2 1 1 2 2 1 1 1 1 1 1 1 2 2 2 2 2
8 9 9 9 9 9 9 9 8 8 8 9 8 8 8 8 8 8 7 6 6 5 4 4 4 3 2 1 0 2 2 2 2 2 2 2 1 1 2 2 3 3 3
9 8 9 8 9 9 9 9 8 8 8 8 8 8 8 8 8 8 7 7 6 4 4 3 3 3 2 1 0 1 1 2 2 2 2 1 1 1 2 3 3 3 4
9 9 9 10 9 9 9 9 8 8 8 7 7 8 8 7 7 7 7 7 5 4 4 3 3 2 2 1 1 1 1 1 1 1 1 1 2 1 1 2 3 3 4
9 9 10 10 9 9 9 9 8 8 7 7 8 7 7 7 6 7 6 6 5 4 4 4 4 2 3 3 2 2 2 2 2 2 2 2 2 2 2 2 2 3 4
9 10 10 10 9 8 7 8 7 7 6 7 7 6 6 6 6 5 5 5 5 4 4 3 3 3 3 3 2 2 2 3 2 2 2 2 3 3 3 3 3 4 4
9 9 9 9 8 7 7 7 7 7 6 6 6 5 5 5 5 4 4 4 4 3 3 3 3 4 4 3 2 2 2 2 3 2 3 3 4 4 4 4 5 5 5
8 8 8 8 7 7 7 7 7 7 6 5 5 5 4 4 4 4 4 4 3 3 3 3 3 4 4 3 2 2 2 2 3 3 3 3 4 5 5 6 6 6 6
8 8 8 8 8 8 7 7 6 6 5 4 4 4 4 4 3 3 3 3 3 3 2 3 3 3 3 3 3 3 3 4 3 4 4 4 5 6 7 7 7 7 7
8 8 8 8 8 7 6 6 6 5 4 4 3 4 4 3 3 3 2 2 2 2 2 3 3 3 3 3 4 4 3 4 3 4 5 6 7 8 8 8 7 7 8
8 8 8 8 7 7 6 6 5 4 4 4 4 4 4 3 3 3 2 2 1 1 2 3 3 3 3 4 5 4 5 4 5 6 6 7 8 8 8 8 8 8 9
9 8 8 7 7 7 7 6 5 4 4 4 4 4 3 3 3 2 1 2 2 2 3 3 3 3 4 4 5 5 6 6 7 8 8 8 8 9 9 9 9 9 9
9 8 8 8 7 7 7 6 5 4 4 5 5 4 3 3 2 2 2 2 2 3 3 4 4 4 5 5 6 6 7 7 8 9 8 8 9 9 10 10 10 9 10
9 8 8 8 6 6 5 5 4 3 3 4 4 3 3 3 2 2 3 2 3 4 4 5 5 6 6 6 7 6 7 8 10 9 9 9 10 10 10 11 10 10 9
8 7 6 7 7 6 5 4 3 2 3 3 3 2 2 3 3 3 3 3 4 4 5 6 6 7 7 8 7 7 8 9 10 9 9 10 10 10 10 10 10 10 10
7 6 5 5 5 5 4 3 3 3 3 3 3 2 2 2 2 3 3 4 4 5 6 6 7 8 9 8 7 7 8 9 10 10 10 10 10 10 10 10 11 11 10
6 5 5 4 4 3 3 3 3 3 3 3 3 3 3 2 3 3 4 5 5 6 7 8 9 9 9 8 8 8 8 8 9 10 10 10 10 11 11 11 11 12 12
5 4 4 3 3 2 2 2 2 2 2 3 4 4 3 3 4 4 6 6 6 7 9 9 9 9 9 8 8 9 9 9 10 10 10 10 11 11 11 11 12 13 13
4 4 4 3 2 2 2 2 1 1 2 3 4 4 4 4 5 5 6 7 8 8 9 9 9 9 9 10 9 9 10 10 11 11 11 11 12 13 13 13 13 13 13
4 4 5 5 4 3 3 2 1 1 2 3 4 5 5 5 6 7 7 8 9 10 10 10 10 10 10 11 11 11 11 11 12 12 12 13 13 13 14 14 14 13 14
4 4 5 5 4 3 3 3 2 3 3 4 5 6 6 7 7 8 8 9 10 10 10 11 11 11 11 12 12 12 13 13 13 14 14 14 15 14 14 14 14 14 15
Wind_Direction
92 96 98 101 108 112 113 117 119 120 122 120 116 119 119 120 118 115 114 118 118 116 121 117 109 107 104 107 128 146 150 122 114 100 95 94 99 99 106 105 114 112 99
94 93 101 104 107 111 113 118 119 119 120 121 118 116 112 115 112 105 106 114 121 121 122 119 115 108 103 105 125 134 157 143 123 120 110 95 103 108 128 140 124 117 116
96 91 98 106 106 108 109 112 114 113 117 119 117 114 110 114 117 112 106 110 113 114 110 107 109 104 103 107 114 128 155 163 168 135 122 106 100 129 165 171 168 148 142
102 96 96 106 108 106 106 107 109 105 104 109 109 111 109 111 116 113 107 107 108 105 106 106 111 108 102 108 126 149 160 190 190 178 131 93 83 159 178 195 211 205 174
105 104 101 105 110 110 107 102 101 96 98 101 105 105 104 108 114 112 107 104 100 98 102 106 105 110 107 101 119 160 155 150 218 218 189 176 50 243 221 221 233 228 196
102 109 105 109 110 110 106 101 101 96 98 100 101 100 95 103 109 110 108 103 100 96 99 101 97 112 118 95 112 168 178 250 255 304 291 289 253 234 245 253 249 233 221
103 109 111 111 110 110 110 106 104 100 99 99 100 100 97 101 108 105 102 103 105 101 96 93 98 97 100 97 170 218 222 232 250 295 310 310 263 252 252 252 260 251 244
100 105 105 106 111 112 110 109 111 107 104 103 104 99 94 94 94 97 101 99 97 94 91 93 89 94 72 73 205 226 226 256 268 300 311 320 290 269 252 251 255 254 249
97 101 103 107 110 113 112 108 110 112 109 106 103 94 89 89 93 93 94 95 94 89 89 96 104 93 67 52 6 309 283 311 311 307 302 308 307 297 263 256 257 255 253
96 101 105 109 109 110 110 110 111 111 107 106 103 96 93 95 98 93 83 87 85 81 84 92 75 62 39 28 21 25 348 335 316 321 304 309 304 292 277 259 262 262 261
95 102 104 108 109 110 110 107 106 103 101 101 101 99 100 98 98 90 79 79 76 74 69 56 50 34 28 20 19 6 349 337 329 318 306 304 301 294 290 275 269 271 269
93 97 106 110 109 110 111 108 106 105 102 103 104 106 108 104 95 85 82 76 72 67 55 46 36 24 25 18 8 351 339 331 328 311 300 295 299 296 297 289 281 279 277
93 96 103 108 109 105 108 113 111 105 104 109 113 113 111 104 92 85 85 80 74 69 52 32 21 15 19 15 360 336 329 325 318 305 302 301 299 291 289 288 284 279 276
92 94 99 101 99 101 107 115 113 112 112 113 116 118 116 102 87 82 81 74 66 64 47 18 2 1 360 6 1 336 321 309 302 303 310 303 296 294 291 288 280 278 279
91 94 98 104 102 102 104 113 121 121 124 121 120 116 112 108 98 84 68 57 61 55 29 7 354 339 342 343 336 328 320 313 311 312 306 302 300 298 293 289 284 280 279
88 91 96 102 103 103 104 107 110 120 128 128 117 111 107 98 89 82 65 41 37 25 5 348 351 346 330 327 328 321 320 318 316 313 305 300 295 296 291 288 288 284 284
84 88 87 92 99 102 103 102 104 102 109 110 104 96 93 87 83 67 35 355 342 341 339 329 325 328 316 315 315 308 309 317 314 314 305 302 295 295 293 294 293 288 285
77 81 81 86 96 99 101 98 99 95 98 95 96 86 76 76 74 48 5 358 340 337 326 308 303 318 309 305 304 304 308 313 309 311 308 306 302 302 297 299 298 295 288
80 79 78 82 92 97 99 94 92 89 91 87 91 78 63 53 30 9 7 5 338 323 317 302 295 305 306 298 298 301 305 310 315 315 313 307 307 304 301 301 302 298 291
78 78 81 83 84 85 85 88 85 79 73 68 66 58 27 13 12 5 359 346 333 322 315 303 301 306 307 304 305 307 310 313 316 314 311 309 308 303 300 299 300 298 293
72 72 74 78 79 75 71 70 66 70 73 63 50 28 16 3 360 351 349 338 327 320 312 308 309 311 311 309 306 306 310 315 315 315 312 310 309 304 303 302 298 297 293
60 62 60 61 65 72 67 55 60 70 65 45 20 3 4 1 343 338 338 333 327 321 314 307 309 311 313 309 306 307 307 309 312 315 313 309 311 307 303 302 299 296 294
49 47 46 40 51 63 58 56 60 51 37 23 13 1 359 357 345 340 334 327 323 320 315 310 312 315 312 307 305 304 304 305 308 311 312 309 308 306 300 298 300 298 295
32 39 33 18 17 28 37 35 31 20 12 12 2 354 354 343 329 325 323 323 321 315 312 309 311 313 309 306 304 304 305 305 306 307 308 308 307 304 301 297 295 293 291
24 26 24 18 16 22 21 15 6 337 340 349 345 341 335 331 327 321 316 316 317 314 311 309 311 309 306 303 302 302 303 304 305 306 306 307 307 306 301 297 294 294 293
17 10 9 7 10 1 348 341 332 323 327 335 334 332 330 326 324 324 321 318 313 309 310 310 310 309 306 304 302 301 300 301 302 302 303 304 306 305 302 298 296 297 294
Height
5872 5872 5872 5873 5873 5874 5874 5875 5875 5876 5877 5879 5880 5881 5882 5883 5884 5884 5885 5886 5887 5888 5889 5889 5890 5890 5891 5891 5892 5892 5892 5893 5893 5893 5894 5894 5894 5894 5894 5895 5895 5895 5895
5873 5873 5873 5874 5874 5875 5875 5876 5876 5877 5878 5880 5881 5882 5883 5884 5885 5886 5886 5887 5888 5889 5890 5890 5891 5892 5892 5893 5893 5893 5893 5893 5894 5894 5894 5894 5894 5895 5895 5895 5895 5895 5895
5874 5875 5875 5875 5875 5876 5876 5877 5878 5878 5879 5881 5882 5883 5884 5885 5886 5887 5887 5888 5889 5890 5891 5892 5892 5893 5893 5894 5894 5894 5894 5894 5894 5894 5894 5895 5895 5895 5895 5895 5896 5896 5896
5875 5876 5876 5876 5877 5877 5878 5878 5879 5880 5881 5882 5883 5884 5885 5885 5886 5887 5888 5889 5890 5891 5892 5892 5893 5894 5894 5894 5895 5895 5895 5895 5895 5895 5895 5895 5895 5895 5895 5895 5896 5896 5896
5876 5877 5877 5877 5878 5879 5879 5880 5881 5881 5882 5883 5884 5885 5886 5887 5887 5889 5890 5890 5891 5892 5893 5893 5894 5894 5894 5895 5895 5895 5895 5895 5895 5895 5895 5895 5895 5895 5895 5895 5896 5896 5896
5878 5878 5878 5879 5879 5880 5881 5882 5882 5883 5884 5885 5886 5886 5887 5887 5888 5890 5891 5892 5892 5893 5894 5894 5894 5895 5895 5895 5895 5896 5896 5896 5896 5896 5896 5895 5895 5895 5896 5896 5896 5896 5896
5879 5879 5879 5880 5881 5882 5883 5883 5884 5884 5885 5886 5887 5888 5888 5888 5889 5891 5892 5893 5893 5894 5894 5894 5895 5895 5895 5896 5896 5896 5896 5896 5896 5896 5896 5895 5895 5895 5895 5895 5895 5895 5896
5880 5880 5880 5881 5882 5883 5884 5884 5885 5886 5887 5887 5888 5889 5890 5890 5891 5892 5893 5893 5894 5894 5895 5895 5895 5896 5896 5896 5896 5896 5896 5896 5896 5896 5896 5895 5895 5895 5895 5895 5895 5895 5895
5881 5881 5882 5882 5883 5884 5885 5886 5887 5887 5888 5889 5889 5890 5891 5891 5892 5893 5893 5894 5895 5895 5895 5895 5895 5896 5896 5896 5896 5896 5896 5896 5896 5896 5896 5895 5895 5895 5895 5894 5895 5895 5895
5882 5883 5883 5884 5884 5885 5886 5887 5888 5888 5889 5890 5891 5892 5892 5893 5894 5894 5895 5895 5896 5896 5896 5896 5896 5896 5896 5896 5896 5896 5896 5896 5896 5896 5896 5895 5895 5895 5894 5894 5894 5894 5894
5884 5884 5884 5885 5886 5887 5887 5888 5889 5889 5890 5891 5892 5893 5894 5894 5895 5895 5896 5896 5896 5896 5897 5897 5897 5897 5897 5897 5896 5896 5896 5896 5896 5896 5896 5895 5895 5894 5894 5894 5894 5894 5894
5885 5886 5886 5887 5888 5888 5889 5889 5890 5891 5891 5892 5893 5894 5895 5895 5896 5896 5896 5897 5897 5897 5897 5897 5897 5897 5897 5897 5896 5896 5896 5896 5895 5895 5895 5895 5895 5894 5893 5893 5893 5893 5892
5887 5888 5888 5888 5889 5889 5890 5891 5891 5892 5893 5893 5894 5895 5895 5896 5897 5897 5897 5897 5897 5897 5897 5897 5897 5897 5897 5897 5896 5896 5896 5895 5895 5895 5895 5894 5894 5893 5893 5892 5892 5892 5891
5889 5889 5890 5890 5890 5891 5891 5892 5892 5893 5894 5894 5895 5895 5896 5897 5897 5897 5897 5897 5897 5897 5897 5897 5897 5897 5897 5896 5896 5896 5895 5895 5894 5894 5894 5893 5893 5892 5892 5891 5891 5890 5889
5891 5891 5891 5891 5892 5892 5893 5893 5893 5894 5894 5895 5895 5896 5897 5897 5897 5897 5897 5897 5897 5897 5897 5897 5897 5896 5896 5896 5896 5895 5895 5894 5894 5893 5893 5892 5892 5891 5890 5890 5889 5888 5888
5892 5892 5893 5893 5893 5893 5894 5894 5894 5895 5895 5895 5896 5896 5897 5897 5897 5897 5897 5897 5897 5896 5897 5897 5896 5896 5896 5896 5895 5894 5894 5893 5893 5892 5891 5891 5890 5889 5889 5888 5887 5887 5886
5894 5894 5894 5894 5895 5895 5895 5896 5896 5896 5895 5896 5896 5897 5897 5897 5897 5897 5897 5897 5896 5896 5896 5896 5896 5896 5895 5895 5894 5894 5893 5892 5892 5891 5890 5889 5889 5888 5887 5886 5885 5884 5884
5896 5896 5896 5896 5896 5896 5897 5897 5897 5897 5897 5897 5897 5897 5897 5897 5897 5897 5896 5896 5896 5896 5896 5895 5894 5894 5894 5894 5893 5892 5892 5891 5890 5889 5888 5888 5887 5886 5885 5884 5884 5883 5882
5898 5898 5898 5897 5897 5898 5898 5898 5898 5898 5898 5898 5898 5898 5898 5898 5897 5897 5897 5896 5896 5896 5895 5895 5894 5894 5893 5893 5892 5891 5891 5890 5889 5887 5886 5886 5885 5884 5883 5882 5882 5881 5880
5900 5900 5900 5899 5899 5899 5899 5899 5899 5899 5899 5899 5898 5898 5898 5898 5898 5897 5897 5896 5895 5895 5894 5894 5893 5892 5891 5891 5891 5890 5889 5888 5887 5886 5885 5884 5882 5881 5880 5880 5879 5878 5877
5901 5901 5901 5900 5900 5900 5899 5900 5900 5900 5899 5899 5899 5899 5898 5898 5898 5897 5896 5895 5895 5894 5893 5893 5892 5891 5890 5889 5889 5888 5888 5887 5885 5884 5883 5882 5880 5879 5878 5878 5877 5876 5875
5903 5902 5902 5901 5901 5900 5900 5900 5900 5900 5900 5900 5899 5899 5898 5897 5897 5896 5896 5895 5894 5893 5892 5891 5890 5889 5888 5887 5887 5886 5886 5886 5884 5883 5881 5880 5878 5877 5876 5875 5874 5873 5872
5904 5903 5903 5902 5901 5901 5900 5900 5900 5900 5900 5900 5899 5898 5897 5897 5896 5896 5895 5894 5893 5892 5891 5890 5889 5888 5887 5886 5885 5884 5883 5883 5882 5881 5879 5878 5876 5875 5874 5873 5872 5870 5869
5904 5904 5903 5903 5902 5901 5900 5900 5900 5900 5900 5899 5898 5898 5897 5896 5896 5895 5894 5893 5891 5890 5889 5888 5887 5886 5885 5884 5883 5882 5881 5880 5879 5878 5877 5876 5874 5872 5871 5870 5869 5867 5866
5905 5904 5903 5902 5902 5901 5900 5900 5900 5899 5899 5898 5898 5897 5896 5895 5894 5893 5892 5891 5890 5888 5887 5886 5885 5884 5883 5882 5881 5880 5878 5877 5876 5875 5874 5873 5871 5869 5868 5866 5865 5864 5863
5905 5904 5903 5902 5901 5901 5900 5900 5899 5899 5898 5898 5897 5896 5895 5894 5893 5892 5890 5889 5888 5887 5885 5884 5883 5882 5881 5879 5878 5877 5876 5874 5873 5872 5871 5869 5868 5866 5864 5863 5861 5860 5859